Time,TemperatureF,DewpointF,PressureIn,WindDirection,WindDirectionDegrees,WindSpeedMPH,WindSpeedGustMPH,Humidity,HourlyPrecipIn,Conditions,Clouds,dailyrainin,SoftwareType,DateUTC
2013-05-18 00:01:00,73.9,71.4,30.09,SW,221,0.0,2.0,92,0.00,,,0.00,meteohub,2013-05-18 04:01:00,
2013-05-18 00:02:00,73.9,71.4,30.09,SW,221,0.0,2.0,92,0.00,,,0.00,meteohub,2013-05-18 04:02:00,
2013-05-18 00:07:00,73.9,71.4,30.09,SW,221,0.0,2.0,92,0.00,,,0.00,meteohub,2013-05-18 04:07:00,
2013-05-18 00:12:00,73.9,71.8,30.09,SW,221,0.0,1.0,93,0.00,,,0.00,meteohub,2013-05-18 04:12:00,
2013-05-18 00:17:00,73.9,71.8,30.09,SW,221,0.0,0.0,93,0.00,,,0.00,meteohub,2013-05-18 04:17:00,
2013-05-18 00:22:00,74.1,72.0,30.09,SW,221,0.0,0.0,93,0.00,,,0.00,meteohub,2013-05-18 04:22:00,
2013-05-18 00:27:00,74.1,72.0,30.09,SW,215,5.0,5.0,93,0.00,,,0.00,meteohub,2013-05-18 04:27:00,
2013-05-18 00:32:00,74.5,72.0,30.09,SW,215,3.0,6.0,92,0.00,,,0.00,meteohub,2013-05-18 04:32:00,
2013-05-18 00:37:00,74.5,71.6,30.09,WSW,255,0.0,6.0,91,0.00,,,0.00,meteohub,2013-05-18 04:37:00,
2013-05-18 00:42:00,74.5,71.6,30.09,WSW,250,0.0,6.0,91,0.00,,,0.00,meteohub,2013-05-18 04:42:00,
2013-05-18 00:47:00,74.3,71.4,30.08,West,273,0.0,3.0,91,0.00,,,0.00,meteohub,2013-05-18 04:47:00,
2013-05-18 00:52:00,74.1,71.2,30.08,West,273,0.0,2.0,91,0.00,,,0.00,meteohub,2013-05-18 04:52:00,
2013-05-18 00:57:00,74.1,71.2,30.09,West,273,0.0,2.0,91,0.00,,,0.00,meteohub,2013-05-18 04:57:00,
2013-05-18 01:02:00,74.1,71.2,30.09,West,273,0.0,1.0,91,0.00,,,0.00,meteohub,2013-05-18 05:02:00,
2013-05-18 01:07:00,73.9,70.9,30.08,West,273,0.0,0.0,90,0.00,,,0.00,meteohub,2013-05-18 05:07:00,
2013-05-18 01:12:00,73.9,70.9,30.08,West,273,0.0,0.0,90,0.00,,,0.00,meteohub,2013-05-18 05:12:00,
2013-05-18 01:17:00,73.9,70.9,30.08,West,273,0.0,0.0,90,0.00,,,0.00,meteohub,2013-05-18 05:17:00,
2013-05-18 01:22:00,74.1,71.2,30.07,West,273,0.0,0.0,91,0.00,,,0.00,meteohub,2013-05-18 05:22:00,
2013-05-18 01:26:00,74.1,71.2,30.08,West,273,0.0,1.0,91,0.00,,,0.00,meteohub,2013-05-18 05:26:00,
2013-05-18 01:31:00,74.1,71.2,30.07,West,273,0.0,1.0,91,0.00,,,0.00,meteohub,2013-05-18 05:31:00,
2013-05-18 01:36:00,74.1,71.2,30.07,West,273,0.0,1.0,91,0.00,,,0.00,meteohub,2013-05-18 05:36:00,
2013-05-18 01:41:00,74.1,71.2,30.07,West,273,0.0,0.0,91,0.00,,,0.00,meteohub,2013-05-18 05:41:00,
2013-05-18 01:46:00,74.1,71.2,30.07,West,273,0.0,0.0,91,0.00,,,0.00,meteohub,2013-05-18 05:46:00,
2013-05-18 01:51:00,74.3,71.4,30.07,West,273,0.0,0.0,91,0.00,,,0.00,meteohub,2013-05-18 05:51:00,
2013-05-18 01:56:00,74.5,71.6,30.06,West,273,0.0,0.0,91,0.00,,,0.00,meteohub,2013-05-18 05:56:00,
2013-05-18 02:02:00,74.5,71.6,30.06,SW,235,0.0,0.0,91,0.00,,,0.00,meteohub,2013-05-18 06:02:00,
2013-05-18 02:09:00,74.7,71.6,30.06,SSW,200,0.0,1.0,90,0.00,,,0.00,meteohub,2013-05-18 06:09:00,
2013-05-18 02:14:00,74.8,71.4,30.06,SE,146,0.0,1.0,89,0.00,,,0.00,meteohub,2013-05-18 06:14:00,
2013-05-18 02:20:00,75.0,70.9,30.06,South,186,1.0,2.0,87,0.00,,,0.00,meteohub,2013-05-18 06:20:00,
2013-05-18 02:26:00,75.6,70.7,30.06,South,178,0.0,4.0,85,0.00,,,0.00,meteohub,2013-05-18 06:26:00,
2013-05-18 02:32:00,75.7,70.5,30.06,South,182,2.0,4.0,84,0.00,,,0.00,meteohub,2013-05-18 06:32:00,
2013-05-18 02:37:00,75.9,70.3,30.05,SSW,204,0.0,4.0,83,0.00,,,0.00,meteohub,2013-05-18 06:37:00,
2013-05-18 02:42:00,76.1,70.5,30.05,South,182,0.0,3.0,83,0.00,,,0.00,meteohub,2013-05-18 06:42:00,
2013-05-18 02:47:00,76.3,70.7,30.05,South,184,0.0,4.0,83,0.00,,,0.00,meteohub,2013-05-18 06:47:00,
2013-05-18 02:52:00,76.3,70.7,30.05,SSW,193,1.0,4.0,83,0.00,,,0.00,meteohub,2013-05-18 06:52:00,
2013-05-18 02:57:00,76.5,70.5,30.05,South,190,0.0,4.0,82,0.00,,,0.00,meteohub,2013-05-18 06:57:00,
2013-05-18 03:02:00,76.5,70.5,30.05,SSW,192,0.0,4.0,82,0.00,,,0.00,meteohub,2013-05-18 07:02:00,
2013-05-18 03:08:00,76.5,70.5,30.05,South,182,0.0,4.0,82,0.00,,,0.00,meteohub,2013-05-18 07:08:00,
2013-05-18 03:13:00,76.6,70.7,30.05,SSE,156,1.0,4.0,82,0.00,,,0.00,meteohub,2013-05-18 07:13:00,
2013-05-18 03:18:00,76.6,70.7,30.05,South,182,1.0,3.0,82,0.00,,,0.00,meteohub,2013-05-18 07:18:00,
2013-05-18 03:24:00,76.6,70.7,30.05,South,169,0.0,3.0,82,0.00,,,0.00,meteohub,2013-05-18 07:24:00,
2013-05-18 03:30:00,76.6,71.1,30.05,SSE,153,1.0,3.0,83,0.00,,,0.00,meteohub,2013-05-18 07:30:00,
2013-05-18 03:35:00,76.6,71.1,30.05,SSW,195,0.0,3.0,83,0.00,,,0.00,meteohub,2013-05-18 07:35:00,
2013-05-18 03:40:00,76.6,71.1,30.05,South,185,0.0,3.0,83,0.00,,,0.00,meteohub,2013-05-18 07:40:00,
2013-05-18 03:57:00,76.3,70.7,30.05,South,173,0.0,1.0,83,0.00,,,0.00,meteohub,2013-05-18 07:57:00,
2013-05-18 04:02:00,76.1,70.5,30.05,South,173,0.0,2.0,83,0.00,,,0.00,meteohub,2013-05-18 08:02:00,
2013-05-18 04:07:00,75.9,70.7,30.05,South,173,0.0,2.0,84,0.00,,,0.00,meteohub,2013-05-18 08:07:00,
2013-05-18 04:12:00,75.7,70.9,30.05,South,173,0.0,2.0,85,0.00,,,0.00,meteohub,2013-05-18 08:12:00,
2013-05-18 04:17:00,75.6,70.7,30.05,South,173,0.0,0.0,85,0.00,,,0.00,meteohub,2013-05-18 08:17:00,
2013-05-18 04:23:00,75.4,70.9,30.05,South,173,0.0,0.0,86,0.00,,,0.00,meteohub,2013-05-18 08:23:00,
2013-05-18 04:28:00,75.2,70.7,30.05,South,173,0.0,0.0,86,0.00,,,0.00,meteohub,2013-05-18 08:28:00,
2013-05-18 04:33:00,75.0,70.9,30.05,South,173,0.0,0.0,87,0.00,,,0.00,meteohub,2013-05-18 08:33:00,
2013-05-18 04:38:00,75.0,70.9,30.05,South,173,0.0,0.0,87,0.00,,,0.00,meteohub,2013-05-18 08:38:00,
2013-05-18 04:43:00,74.8,71.1,30.05,South,173,0.0,0.0,88,0.00,,,0.00,meteohub,2013-05-18 08:43:00,
2013-05-18 04:48:00,74.8,71.1,30.05,South,173,0.0,0.0,88,0.00,,,0.00,meteohub,2013-05-18 08:48:00,
2013-05-18 04:53:00,74.8,71.1,30.05,South,173,0.0,0.0,88,0.00,,,0.00,meteohub,2013-05-18 08:53:00,
2013-05-18 04:58:00,74.7,71.2,30.06,South,173,0.0,0.0,89,0.00,,,0.00,meteohub,2013-05-18 08:58:00,
2013-05-18 05:03:00,74.7,71.2,30.05,South,173,0.0,0.0,89,0.00,,,0.00,meteohub,2013-05-18 09:03:00,
2013-05-18 05:08:00,74.7,71.2,30.06,South,173,0.0,0.0,89,0.00,,,0.00,meteohub,2013-05-18 09:08:00,
2013-05-18 05:13:00,74.7,71.6,30.06,South,173,0.0,0.0,90,0.00,,,0.00,meteohub,2013-05-18 09:13:00,
2013-05-18 05:18:00,74.8,72.0,30.06,South,173,0.0,0.0,91,0.00,,,0.00,meteohub,2013-05-18 09:18:00,
2013-05-18 05:23:00,74.8,72.0,30.05,South,173,0.0,0.0,91,0.00,,,0.00,meteohub,2013-05-18 09:23:00,
2013-05-18 05:28:00,74.8,71.8,30.06,South,173,0.0,0.0,90,0.00,,,0.00,meteohub,2013-05-18 09:28:00,
2013-05-18 05:33:00,74.7,71.6,30.06,South,173,0.0,0.0,90,0.00,,,0.00,meteohub,2013-05-18 09:33:00,
2013-05-18 05:38:00,74.7,71.6,30.06,South,173,0.0,0.0,90,0.00,,,0.00,meteohub,2013-05-18 09:38:00,
2013-05-18 05:43:00,74.7,71.8,30.06,South,173,0.0,0.0,91,0.00,,,0.00,meteohub,2013-05-18 09:43:00,
2013-05-18 05:48:00,74.7,71.8,30.06,South,173,0.0,0.0,91,0.00,,,0.00,meteohub,2013-05-18 09:48:00,
2013-05-18 05:53:00,74.7,71.8,30.06,South,173,0.0,0.0,91,0.00,,,0.00,meteohub,2013-05-18 09:53:00,
2013-05-18 05:58:00,74.7,71.8,30.06,South,173,0.0,0.0,91,0.00,,,0.00,meteohub,2013-05-18 09:58:00,
2013-05-18 06:03:00,74.7,71.8,30.06,South,173,0.0,0.0,91,0.00,,,0.00,meteohub,2013-05-18 10:03:00,
2013-05-18 06:08:00,74.7,71.8,30.06,South,173,0.0,0.0,91,0.00,,,0.00,meteohub,2013-05-18 10:08:00,
2013-05-18 06:13:00,74.7,72.1,30.06,South,173,0.0,0.0,92,0.00,,,0.00,meteohub,2013-05-18 10:13:00,
2013-05-18 06:18:00,74.5,71.6,30.07,South,173,0.0,0.0,91,0.00,,,0.00,meteohub,2013-05-18 10:18:00,
2013-05-18 06:23:00,74.5,71.6,30.07,South,173,0.0,0.0,91,0.00,,,0.00,meteohub,2013-05-18 10:23:00,
2013-05-18 06:28:00,74.3,71.8,30.07,South,173,0.0,0.0,92,0.00,,,0.00,meteohub,2013-05-18 10:28:00,
2013-05-18 06:33:00,74.1,71.6,30.07,South,173,0.0,0.0,92,0.00,,,0.00,meteohub,2013-05-18 10:33:00,
2013-05-18 06:38:00,73.9,71.1,30.07,South,173,0.0,0.0,91,0.00,,,0.00,meteohub,2013-05-18 10:38:00,
2013-05-18 06:43:00,73.9,71.4,30.07,South,173,0.0,0.0,92,0.00,,,0.00,meteohub,2013-05-18 10:43:00,
2013-05-18 06:48:00,73.9,71.8,30.08,South,173,0.0,0.0,93,0.00,,,0.00,meteohub,2013-05-18 10:48:00,
2013-05-18 06:53:00,73.9,71.8,30.08,South,173,0.0,0.0,93,0.00,,,0.00,meteohub,2013-05-18 10:53:00,
2013-05-18 06:58:00,73.8,71.6,30.08,South,173,0.0,0.0,93,0.00,,,0.00,meteohub,2013-05-18 10:58:00,
2013-05-18 07:03:00,73.4,70.9,30.08,South,173,0.0,0.0,92,0.00,,,0.00,meteohub,2013-05-18 11:03:00,
2013-05-18 07:08:00,73.2,70.7,30.08,South,173,0.0,0.0,92,0.00,,,0.00,meteohub,2013-05-18 11:08:00,
2013-05-18 07:13:00,73.2,71.4,30.08,South,173,0.0,0.0,94,0.00,,,0.00,meteohub,2013-05-18 11:13:00,
2013-05-18 07:18:00,73.2,71.4,30.08,South,173,0.0,0.0,94,0.00,,,0.00,meteohub,2013-05-18 11:18:00,
2013-05-18 07:23:00,73.2,71.4,30.09,South,173,0.0,0.0,94,0.00,,,0.00,meteohub,2013-05-18 11:23:00,
2013-05-18 07:28:00,73.4,71.6,30.09,South,173,0.0,0.0,94,0.00,,,0.00,meteohub,2013-05-18 11:28:00,
2013-05-18 07:33:00,73.2,71.4,30.09,South,173,0.0,0.0,94,0.00,,,0.00,meteohub,2013-05-18 11:33:00,
2013-05-18 07:38:00,73.4,71.6,30.09,South,173,0.0,0.0,94,0.00,,,0.00,meteohub,2013-05-18 11:38:00,
2013-05-18 07:43:00,73.4,71.6,30.09,South,173,0.0,0.0,94,0.00,,,0.00,meteohub,2013-05-18 11:43:00,
2013-05-18 07:48:00,73.8,72.3,30.09,South,173,0.0,0.0,95,0.00,,,0.00,meteohub,2013-05-18 11:48:00,
2013-05-18 07:53:00,74.1,72.9,30.09,South,173,0.0,0.0,96,0.00,,,0.00,meteohub,2013-05-18 11:53:00,
2013-05-18 07:58:00,74.7,73.2,30.09,South,173,0.0,0.0,95,0.00,,,0.00,meteohub,2013-05-18 11:58:00,
2013-05-18 08:03:00,75.0,73.2,30.09,South,173,0.0,0.0,94,0.00,,,0.00,meteohub,2013-05-18 12:03:00,
2013-05-18 08:08:00,75.6,73.4,30.09,South,173,0.0,0.0,93,0.00,,,0.00,meteohub,2013-05-18 12:08:00,
2013-05-18 08:13:00,76.1,73.6,30.09,South,169,0.0,0.0,92,0.00,,,0.00,meteohub,2013-05-18 12:13:00,
2013-05-18 08:18:00,76.8,73.9,30.09,South,169,0.0,0.0,91,0.00,,,0.00,meteohub,2013-05-18 12:18:00,
2013-05-18 08:23:00,77.4,73.9,30.09,SSE,147,0.0,0.0,89,0.00,,,0.00,meteohub,2013-05-18 12:23:00,
2013-05-18 08:28:00,78.3,74.1,30.10,SE,136,1.0,0.0,87,0.00,,,0.00,meteohub,2013-05-18 12:28:00,
2013-05-18 08:33:00,79.2,73.9,30.10,South,178,2.0,5.0,84,0.00,,,0.00,meteohub,2013-05-18 12:33:00,
2013-05-18 08:38:00,79.3,73.8,30.10,SE,130,0.0,5.0,83,0.00,,,0.00,meteohub,2013-05-18 12:38:00,
2013-05-18 08:43:00,79.5,73.6,30.10,ESE,122,0.0,6.0,82,0.00,,,0.00,meteohub,2013-05-18 12:43:00,
2013-05-18 08:48:00,80.1,73.8,30.10,SSW,195,3.0,7.0,81,0.00,,,0.00,meteohub,2013-05-18 12:48:00,
2013-05-18 08:53:00,80.4,73.8,30.10,South,184,5.0,7.0,80,0.00,,,0.00,meteohub,2013-05-18 12:53:00,
2013-05-18 08:58:00,80.4,74.1,30.10,SE,146,4.0,7.0,81,0.00,,,0.00,meteohub,2013-05-18 12:58:00,
2013-05-18 09:03:00,80.8,73.6,30.10,ESE,119,1.0,7.0,79,0.00,,,0.00,meteohub,2013-05-18 13:03:00,
2013-05-18 09:08:00,81.0,73.0,30.10,SSE,153,1.0,7.0,77,0.00,,,0.00,meteohub,2013-05-18 13:08:00,
2013-05-18 09:13:00,81.3,73.4,30.10,ENE,67,1.0,7.0,77,0.00,,,0.00,meteohub,2013-05-18 13:13:00,
2013-05-18 09:18:00,81.5,72.9,30.10,SSE,161,3.0,7.0,75,0.00,,,0.00,meteohub,2013-05-18 13:18:00,
2013-05-18 09:23:00,81.7,72.5,30.10,South,186,1.0,6.0,74,0.00,,,0.00,meteohub,2013-05-18 13:23:00,
2013-05-18 09:28:00,81.9,72.7,30.10,East,80,0.0,6.0,74,0.00,,,0.00,meteohub,2013-05-18 13:28:00,
2013-05-18 09:33:00,81.9,72.7,30.11,SE,146,0.0,6.0,74,0.00,,,0.00,meteohub,2013-05-18 13:33:00,
2013-05-18 09:38:00,82.2,73.6,30.11,ESE,107,0.0,8.0,75,0.00,,,0.00,meteohub,2013-05-18 13:38:00,
2013-05-18 09:43:00,82.6,73.4,30.11,SSE,167,5.0,8.0,74,0.00,,,0.00,meteohub,2013-05-18 13:43:00,
2013-05-18 09:48:00,82.8,73.6,30.10,SE,133,0.0,8.0,74,0.00,,,0.00,meteohub,2013-05-18 13:48:00,
2013-05-18 09:53:00,82.8,73.9,30.10,SE,135,2.0,7.0,75,0.00,,,0.00,meteohub,2013-05-18 13:53:00,
2013-05-18 09:58:00,82.8,74.5,30.10,SSE,163,3.0,7.0,76,0.00,,,0.00,meteohub,2013-05-18 13:58:00,
2013-05-18 10:03:00,82.6,74.3,30.10,SSW,200,4.0,8.0,76,0.00,,,0.00,meteohub,2013-05-18 14:03:00,
2013-05-18 10:08:00,82.2,74.3,30.10,SE,128,1.0,8.0,77,0.00,,,0.00,meteohub,2013-05-18 14:08:00,
2013-05-18 10:13:00,82.6,74.3,30.10,SSW,203,1.0,8.0,76,0.00,,,0.00,meteohub,2013-05-18 14:13:00,
2013-05-18 10:18:00,82.8,74.5,30.10,SSE,165,2.0,8.0,76,0.00,,,0.00,meteohub,2013-05-18 14:18:00,
2013-05-18 10:23:00,82.9,73.8,30.10,SSE,165,4.0,8.0,74,0.00,,,0.00,meteohub,2013-05-18 14:23:00,
2013-05-18 10:28:00,83.1,73.9,30.10,East,83,5.0,8.0,74,0.00,,,0.00,meteohub,2013-05-18 14:28:00,
2013-05-18 10:33:00,83.1,73.9,30.10,SE,136,6.0,8.0,74,0.00,,,0.00,meteohub,2013-05-18 14:33:00,
2013-05-18 10:38:00,83.3,74.1,30.10,SE,134,6.0,8.0,74,0.00,,,0.00,meteohub,2013-05-18 14:38:00,
2013-05-18 10:43:00,83.1,73.9,30.10,SE,144,2.0,7.0,74,0.00,,,0.00,meteohub,2013-05-18 14:43:00,
2013-05-18 10:48:00,82.9,73.4,30.10,ESE,119,1.0,8.0,73,0.00,,,0.00,meteohub,2013-05-18 14:48:00,
2013-05-18 10:53:00,83.1,73.9,30.10,SSE,149,6.0,9.0,74,0.00,,,0.00,meteohub,2013-05-18 14:53:00,
2013-05-18 10:58:00,83.5,73.6,30.11,ESE,109,3.0,9.0,72,0.00,,,0.00,meteohub,2013-05-18 14:58:00,
2013-05-18 11:03:00,82.9,73.4,30.10,SSE,151,2.0,9.0,73,0.00,,,0.00,meteohub,2013-05-18 15:03:00,
2013-05-18 11:08:00,82.9,73.8,30.11,SSW,209,0.0,8.0,74,0.00,,,0.00,meteohub,2013-05-18 15:08:00,
2013-05-18 11:13:00,82.9,73.4,30.10,SSE,149,3.0,9.0,73,0.00,,,0.00,meteohub,2013-05-18 15:13:00,
2013-05-18 11:18:00,83.1,73.9,30.11,SSW,204,1.0,11.0,74,0.00,,,0.00,meteohub,2013-05-18 15:18:00,
2013-05-18 11:23:00,84.0,73.9,30.11,ESE,123,1.0,11.0,72,0.00,,,0.00,meteohub,2013-05-18 15:23:00,
2013-05-18 11:28:00,84.2,74.1,30.11,South,171,3.0,11.0,72,0.00,,,0.00,meteohub,2013-05-18 15:28:00,
2013-05-18 11:33:00,84.6,73.8,30.11,ENE,62,1.0,11.0,70,0.00,,,0.00,meteohub,2013-05-18 15:33:00,
2013-05-18 11:38:00,84.4,73.6,30.11,South,179,7.0,11.0,70,0.00,,,0.00,meteohub,2013-05-18 15:38:00,
2013-05-18 11:44:00,84.0,73.6,30.10,South,180,3.0,11.0,71,0.00,,,0.00,meteohub,2013-05-18 15:44:00,
2013-05-18 11:49:00,84.4,73.9,30.10,SE,136,2.0,11.0,71,0.00,,,0.00,meteohub,2013-05-18 15:49:00,
2013-05-18 11:54:00,84.0,73.9,30.10,East,88,5.0,11.0,72,0.00,,,0.00,meteohub,2013-05-18 15:54:00,
2013-05-18 11:59:00,84.7,73.9,30.10,SSE,159,5.0,11.0,70,0.00,,,0.00,meteohub,2013-05-18 15:59:00,
2013-05-18 12:04:00,84.6,73.2,30.10,East,96,0.0,11.0,69,0.00,,,0.00,meteohub,2013-05-18 16:04:00,
2013-05-18 12:08:00,83.1,73.2,30.10,SSE,163,1.0,11.0,72,0.00,,,0.00,meteohub,2013-05-18 16:08:00,
2013-05-18 12:13:00,82.4,72.9,30.10,East,100,0.0,10.0,73,0.00,,,0.00,meteohub,2013-05-18 16:13:00,
2013-05-18 12:18:00,82.0,72.5,30.10,East,82,1.0,10.0,73,0.00,,,0.00,meteohub,2013-05-18 16:18:00,
2013-05-18 12:23:00,82.0,72.9,30.10,ESE,103,1.0,10.0,74,0.00,,,0.00,meteohub,2013-05-18 16:23:00,
2013-05-18 12:29:00,81.7,72.5,30.10,ENE,68,5.0,9.0,74,0.00,,,0.00,meteohub,2013-05-18 16:29:00,
2013-05-18 12:34:00,81.7,73.0,30.10,SE,146,1.0,9.0,75,0.00,,,0.00,meteohub,2013-05-18 16:34:00,
2013-05-18 12:39:00,81.9,72.7,30.10,SSE,167,0.0,9.0,74,0.00,,,0.00,meteohub,2013-05-18 16:39:00,
2013-05-18 12:44:00,81.7,72.5,30.09,SE,138,2.0,9.0,74,0.00,,,0.00,meteohub,2013-05-18 16:44:00,
2013-05-18 12:49:00,81.7,73.0,30.09,ESE,112,0.0,8.0,75,0.00,,,0.00,meteohub,2013-05-18 16:49:00,
2013-05-18 12:54:00,81.9,73.2,30.09,NE,36,0.0,8.0,75,0.00,,,0.00,meteohub,2013-05-18 16:54:00,
2013-05-18 12:59:00,82.0,72.9,30.09,ESE,123,2.0,8.0,74,0.00,,,0.00,meteohub,2013-05-18 16:59:00,
2013-05-18 13:04:00,82.0,72.9,30.09,SE,142,5.0,8.0,74,0.00,,,0.00,meteohub,2013-05-18 17:04:00,
2013-05-18 13:08:00,81.9,72.7,30.09,SE,128,3.0,8.0,74,0.00,,,0.00,meteohub,2013-05-18 17:08:00,
2013-05-18 13:13:00,81.9,73.6,30.09,NNW,346,1.0,8.0,76,0.00,,,0.00,meteohub,2013-05-18 17:13:00,
2013-05-18 13:18:00,82.6,73.8,30.09,East,80,2.0,8.0,75,0.00,,,0.00,meteohub,2013-05-18 17:18:00,
2013-05-18 13:23:00,83.1,73.2,30.09,SSW,195,3.0,8.0,72,0.00,,,0.00,meteohub,2013-05-18 17:23:00,
2013-05-18 13:28:00,83.3,72.9,30.09,SW,217,1.0,9.0,71,0.00,,,0.00,meteohub,2013-05-18 17:28:00,
2013-05-18 13:34:00,82.8,73.2,30.09,SE,136,2.0,9.0,73,0.00,,,0.00,meteohub,2013-05-18 17:34:00,
2013-05-18 13:39:00,83.1,73.2,30.09,South,180,6.0,9.0,72,0.00,,,0.00,meteohub,2013-05-18 17:39:00,
2013-05-18 13:44:00,83.5,73.0,30.08,East,101,0.0,9.0,71,0.00,,,0.00,meteohub,2013-05-18 17:44:00,
2013-05-18 13:49:00,83.7,73.2,30.08,SSE,155,1.0,9.0,71,0.00,,,0.00,meteohub,2013-05-18 17:49:00,
2013-05-18 13:54:00,84.6,73.8,30.08,SSE,158,1.0,9.0,70,0.00,,,0.00,meteohub,2013-05-18 17:54:00,
2013-05-18 13:58:00,85.3,73.9,30.08,SSE,155,1.0,9.0,69,0.00,,,0.00,meteohub,2013-05-18 17:58:00,
2013-05-18 14:03:00,84.6,73.2,30.08,SSE,155,4.0,10.0,69,0.00,,,0.00,meteohub,2013-05-18 18:03:00,
2013-05-18 14:08:00,83.8,73.0,30.08,SSW,202,3.0,10.0,70,0.00,,,0.00,meteohub,2013-05-18 18:08:00,
2013-05-18 14:13:00,83.8,73.4,30.08,ESE,103,1.0,10.0,71,0.00,,,0.00,meteohub,2013-05-18 18:13:00,
2013-05-18 14:18:00,84.2,73.4,30.08,SSE,163,1.0,8.0,70,0.00,,,0.00,meteohub,2013-05-18 18:18:00,
2013-05-18 14:23:00,84.4,73.6,30.08,SSE,155,0.0,8.0,70,0.00,,,0.00,meteohub,2013-05-18 18:23:00,
2013-05-18 14:28:00,84.6,73.8,30.08,South,173,1.0,8.0,70,0.00,,,0.00,meteohub,2013-05-18 18:28:00,
2013-05-18 14:34:00,84.4,73.6,30.08,East,82,3.0,8.0,70,0.00,,,0.00,meteohub,2013-05-18 18:34:00,
2013-05-18 14:39:00,83.7,72.9,30.08,South,191,2.0,9.0,70,0.00,,,0.00,meteohub,2013-05-18 18:39:00,
2013-05-18 14:44:00,83.8,73.4,30.07,East,80,0.0,9.0,71,0.00,,,0.00,meteohub,2013-05-18 18:44:00,
2013-05-18 14:49:00,84.0,73.2,30.06,SE,126,4.0,9.0,70,0.00,,,0.00,meteohub,2013-05-18 18:49:00,
2013-05-18 14:54:00,84.0,72.3,30.06,East,91,7.0,10.0,68,0.00,,,0.00,meteohub,2013-05-18 18:54:00,
2013-05-18 14:59:00,83.8,72.5,30.06,SE,146,1.0,11.0,69,0.00,,,0.00,meteohub,2013-05-18 18:59:00,
2013-05-18 15:04:00,84.0,72.7,30.06,ESE,110,8.0,11.0,69,0.00,,,0.00,meteohub,2013-05-18 19:04:00,
2013-05-18 15:09:00,84.4,73.6,30.06,South,180,0.0,11.0,70,0.00,,,0.00,meteohub,2013-05-18 19:09:00,
2013-05-18 15:14:00,84.9,73.2,30.06,ESE,115,2.0,10.0,68,0.00,,,0.00,meteohub,2013-05-18 19:14:00,
2013-05-18 15:19:00,85.3,73.6,30.06,SSE,153,4.0,10.0,68,0.00,,,0.00,meteohub,2013-05-18 19:19:00,
2013-05-18 15:24:00,84.7,72.5,30.06,South,188,5.0,8.0,67,0.00,,,0.00,meteohub,2013-05-18 19:24:00,
2013-05-18 15:29:00,84.0,72.7,30.06,SE,130,3.0,12.0,69,0.00,,,0.00,meteohub,2013-05-18 19:29:00,
2013-05-18 15:34:00,84.6,72.9,30.06,SE,128,2.0,12.0,68,0.00,,,0.00,meteohub,2013-05-18 19:34:00,
2013-05-18 15:38:00,84.6,73.2,30.06,SSE,153,0.0,12.0,69,0.00,,,0.00,meteohub,2013-05-18 19:38:00,
2013-05-18 15:43:00,84.7,73.0,30.06,South,169,5.0,9.0,68,0.00,,,0.00,meteohub,2013-05-18 19:43:00,
2013-05-18 15:48:00,84.6,72.9,30.06,South,188,0.0,9.0,68,0.00,,,0.00,meteohub,2013-05-18 19:48:00,
2013-05-18 15:53:00,84.7,73.0,30.05,East,101,5.0,8.0,68,0.00,,,0.00,meteohub,2013-05-18 19:53:00,
2013-05-18 15:58:00,84.6,72.9,30.05,ESE,119,3.0,10.0,68,0.00,,,0.00,meteohub,2013-05-18 19:58:00,
2013-05-18 16:03:00,84.6,72.3,30.05,SSE,156,4.0,10.0,67,0.00,,,0.00,meteohub,2013-05-18 20:03:00,
2013-05-18 16:08:00,84.2,72.9,30.05,SE,135,0.0,10.0,69,0.00,,,0.00,meteohub,2013-05-18 20:08:00,
2013-05-18 16:13:00,84.6,72.9,30.05,ESE,103,3.0,8.0,68,0.00,,,0.00,meteohub,2013-05-18 20:13:00,
2013-05-18 16:18:00,84.0,72.7,30.04,SE,132,2.0,13.0,69,0.00,,,0.00,meteohub,2013-05-18 20:18:00,
2013-05-18 16:23:00,84.4,72.7,30.04,SSE,163,3.0,13.0,68,0.00,,,0.00,meteohub,2013-05-18 20:23:00,
2013-05-18 16:28:00,84.4,73.0,30.04,SE,141,11.0,13.0,69,0.00,,,0.00,meteohub,2013-05-18 20:28:00,
2013-05-18 16:33:00,84.0,72.3,30.04,East,92,2.0,12.0,68,0.00,,,0.00,meteohub,2013-05-18 20:33:00,
2013-05-18 16:38:00,83.3,72.5,30.04,SE,137,6.0,14.0,70,0.00,,,0.00,meteohub,2013-05-18 20:38:00,
2013-05-18 16:43:00,82.8,72.0,30.04,SSE,150,6.0,14.0,70,0.00,,,0.00,meteohub,2013-05-18 20:43:00,
2013-05-18 16:49:00,81.9,72.0,30.04,SE,141,3.0,14.0,72,0.00,,,0.00,meteohub,2013-05-18 20:49:00,
2013-05-18 16:53:00,81.3,71.8,30.04,ESE,102,1.0,9.0,73,0.00,,,0.00,meteohub,2013-05-18 20:53:00,
2013-05-18 16:58:00,81.1,71.6,30.04,ESE,113,0.0,8.0,73,0.00,,,0.00,meteohub,2013-05-18 20:58:00,
2013-05-18 17:03:00,80.8,71.8,30.04,SSW,204,4.0,8.0,74,0.00,,,0.00,meteohub,2013-05-18 21:03:00,
2013-05-18 17:08:00,80.2,71.6,30.04,SSE,153,2.0,8.0,75,0.00,,,0.00,meteohub,2013-05-18 21:08:00,
2013-05-18 17:13:00,80.1,71.8,30.05,NE,35,3.0,8.0,76,0.00,,,0.00,meteohub,2013-05-18 21:13:00,
2013-05-18 17:18:00,80.1,71.8,30.05,East,98,0.0,8.0,76,0.00,,,0.00,meteohub,2013-05-18 21:18:00,
2013-05-18 17:23:00,79.9,71.6,30.04,ESE,111,0.0,6.0,76,0.00,,,0.00,meteohub,2013-05-18 21:23:00,
2013-05-18 17:28:00,79.9,71.6,30.05,SE,136,3.0,5.0,76,0.00,,,0.00,meteohub,2013-05-18 21:28:00,
2013-05-18 17:33:00,79.9,72.0,30.04,South,175,4.0,7.0,77,0.00,,,0.00,meteohub,2013-05-18 21:33:00,
2013-05-18 17:38:00,79.7,71.4,30.05,East,94,6.0,8.0,76,0.00,,,0.00,meteohub,2013-05-18 21:38:00,
2013-05-18 17:43:00,79.7,71.4,30.04,SSE,148,3.0,8.0,76,0.00,,,0.00,meteohub,2013-05-18 21:43:00,
2013-05-18 17:48:00,80.1,71.8,30.04,SE,125,2.0,9.0,76,0.00,,,0.00,meteohub,2013-05-18 21:48:00,
2013-05-18 17:53:00,80.6,71.6,30.05,SE,131,1.0,9.0,74,0.00,,,0.00,meteohub,2013-05-18 21:53:00,
2013-05-18 17:58:00,81.0,72.0,30.05,SE,129,3.0,9.0,74,0.00,,,0.00,meteohub,2013-05-18 21:58:00,
2013-05-18 18:03:00,81.1,72.1,30.05,ENE,76,0.0,9.0,74,0.00,,,0.00,meteohub,2013-05-18 22:03:00,
2013-05-18 18:08:00,81.0,72.0,30.05,ESE,109,1.0,7.0,74,0.00,,,0.00,meteohub,2013-05-18 22:08:00,
2013-05-18 18:13:00,80.6,71.6,30.05,SE,134,0.0,7.0,74,0.00,,,0.00,meteohub,2013-05-18 22:13:00,
2013-05-18 18:18:00,80.4,71.8,30.05,ESE,121,0.0,7.0,75,0.00,,,0.00,meteohub,2013-05-18 22:18:00,
2013-05-18 18:23:00,80.2,72.0,30.05,SSE,154,0.0,7.0,76,0.00,,,0.00,meteohub,2013-05-18 22:23:00,
2013-05-18 18:28:00,80.2,72.0,30.05,ESE,122,1.0,7.0,76,0.00,,,0.00,meteohub,2013-05-18 22:28:00,
2013-05-18 18:33:00,80.2,72.0,30.05,NNE,22,3.0,7.0,76,0.00,,,0.00,meteohub,2013-05-18 22:33:00,
2013-05-18 18:38:00,80.2,71.6,30.04,SSE,167,0.0,6.0,75,0.00,,,0.00,meteohub,2013-05-18 22:38:00,
2013-05-18 18:43:00,80.2,71.6,30.04,SE,132,0.0,6.0,75,0.00,,,0.00,meteohub,2013-05-18 22:43:00,
2013-05-18 18:48:00,80.2,71.6,30.04,ESE,119,1.0,6.0,75,0.00,,,0.00,meteohub,2013-05-18 22:48:00,
2013-05-18 18:53:00,80.4,71.8,30.04,WNW,300,1.0,7.0,75,0.00,,,0.00,meteohub,2013-05-18 22:53:00,
2013-05-18 18:58:00,80.4,71.8,30.04,SE,132,2.0,7.0,75,0.00,,,0.00,meteohub,2013-05-18 22:58:00,
2013-05-18 19:03:00,80.2,71.6,30.05,SE,139,1.0,7.0,75,0.00,,,0.00,meteohub,2013-05-18 23:03:00,
2013-05-18 19:08:00,80.2,71.6,30.05,ESE,102,2.0,6.0,75,0.00,,,0.00,meteohub,2013-05-18 23:08:00,
2013-05-18 19:13:00,80.1,71.4,30.05,SE,140,0.0,7.0,75,0.00,,,0.00,meteohub,2013-05-18 23:13:00,
2013-05-18 19:18:00,79.9,71.2,30.05,ESE,103,1.0,7.0,75,0.00,,,0.00,meteohub,2013-05-18 23:18:00,
2013-05-18 19:23:00,79.7,71.4,30.05,SE,134,5.0,7.0,76,0.00,,,0.00,meteohub,2013-05-18 23:23:00,
2013-05-18 19:28:00,79.5,71.2,30.05,SE,144,0.0,6.0,76,0.00,,,0.00,meteohub,2013-05-18 23:28:00,
2013-05-18 19:33:00,79.3,70.7,30.06,SE,138,0.0,6.0,75,0.00,,,0.00,meteohub,2013-05-18 23:33:00,
2013-05-18 19:38:00,79.2,70.9,30.06,South,174,0.0,6.0,76,0.00,,,0.00,meteohub,2013-05-18 23:38:00,
2013-05-18 19:43:00,79.2,70.9,30.06,SE,129,0.0,7.0,76,0.00,,,0.00,meteohub,2013-05-18 23:43:00,
2013-05-18 19:48:00,79.0,70.7,30.06,ENE,59,1.0,7.0,76,0.00,,,0.00,meteohub,2013-05-18 23:48:00,
2013-05-18 19:53:00,78.8,70.5,30.06,East,86,0.0,7.0,76,0.00,,,0.00,meteohub,2013-05-18 23:53:00,
2013-05-18 19:58:00,78.6,70.3,30.06,SE,144,5.0,5.0,76,0.00,,,0.00,meteohub,2013-05-18 23:58:00,
2013-05-18 20:03:00,78.4,70.7,30.06,ESE,123,3.0,5.0,77,0.00,,,0.00,meteohub,2013-05-19 00:03:00,
2013-05-18 20:08:00,78.3,70.5,30.06,SE,142,0.0,5.0,77,0.00,,,0.00,meteohub,2013-05-19 00:08:00,
2013-05-18 20:13:00,78.1,70.7,30.06,SSE,157,0.0,5.0,78,0.00,,,0.00,meteohub,2013-05-19 00:13:00,
2013-05-18 20:18:00,78.1,70.7,30.07,SE,139,0.0,4.0,78,0.00,,,0.00,meteohub,2013-05-19 00:18:00,
2013-05-18 20:23:00,78.1,70.7,30.07,East,96,3.0,5.0,78,0.00,,,0.00,meteohub,2013-05-19 00:23:00,
2013-05-18 20:28:00,78.1,70.7,30.07,SE,132,0.0,5.0,78,0.00,,,0.00,meteohub,2013-05-19 00:28:00,
2013-05-18 20:33:00,78.1,70.7,30.07,South,172,1.0,5.0,78,0.00,,,0.00,meteohub,2013-05-19 00:33:00,
2013-05-18 20:38:00,78.1,71.1,30.07,SE,133,0.0,5.0,79,0.00,,,0.00,meteohub,2013-05-19 00:38:00,
2013-05-18 20:43:00,78.1,71.1,30.07,SE,126,4.0,5.0,79,0.00,,,0.00,meteohub,2013-05-19 00:43:00,
2013-05-18 20:48:00,78.1,71.1,30.07,SE,138,1.0,5.0,79,0.00,,,0.00,meteohub,2013-05-19 00:48:00,
2013-05-18 20:53:00,78.1,71.1,30.07,SE,140,2.0,5.0,79,0.00,,,0.00,meteohub,2013-05-19 00:53:00,
2013-05-18 20:58:00,78.1,71.1,30.07,SSE,166,0.0,6.0,79,0.00,,,0.00,meteohub,2013-05-19 00:58:00,
2013-05-18 21:03:00,78.1,70.7,30.07,SE,144,0.0,6.0,78,0.00,,,0.00,meteohub,2013-05-19 01:03:00,
2013-05-18 21:08:00,78.1,71.1,30.08,SE,140,0.0,7.0,79,0.00,,,0.00,meteohub,2013-05-19 01:08:00,
2013-05-18 21:13:00,78.1,71.1,30.08,SE,132,2.0,7.0,79,0.00,,,0.00,meteohub,2013-05-19 01:13:00,
2013-05-18 21:18:00,78.1,71.1,30.08,SSE,150,0.0,7.0,79,0.00,,,0.00,meteohub,2013-05-19 01:18:00,
2013-05-18 21:23:00,78.1,71.1,30.08,SE,139,2.0,7.0,79,0.00,,,0.00,meteohub,2013-05-19 01:23:00,
2013-05-18 21:28:00,78.1,71.1,30.08,SSE,148,0.0,7.0,79,0.00,,,0.00,meteohub,2013-05-19 01:28:00,
2013-05-18 21:33:00,78.1,71.1,30.08,SE,134,0.0,6.0,79,0.00,,,0.00,meteohub,2013-05-19 01:33:00,
2013-05-18 21:38:00,78.1,71.1,30.08,ESE,105,0.0,5.0,79,0.00,,,0.00,meteohub,2013-05-19 01:38:00,
2013-05-18 21:43:00,78.1,71.8,30.08,SSE,149,1.0,7.0,81,0.00,,,0.00,meteohub,2013-05-19 01:43:00,
2013-05-18 21:48:00,77.7,71.8,30.08,SE,127,0.0,7.0,82,0.00,,,0.00,meteohub,2013-05-19 01:48:00,
2013-05-18 21:53:00,77.4,72.1,30.09,SE,132,2.0,7.0,84,0.00,,,0.00,meteohub,2013-05-19 01:53:00,
2013-05-18 21:58:00,76.8,72.0,30.09,SE,134,0.0,5.0,85,0.01,,,0.01,meteohub,2013-05-19 01:58:00,
2013-05-18 22:03:00,76.5,72.0,30.09,SSE,152,4.0,5.0,86,0.01,,,0.01,meteohub,2013-05-19 02:03:00,
2013-05-18 22:08:00,76.3,72.1,30.09,SSE,154,0.0,5.0,87,0.01,,,0.01,meteohub,2013-05-19 02:08:00,
2013-05-18 22:13:00,76.1,72.0,30.09,SE,137,0.0,5.0,87,0.01,,,0.01,meteohub,2013-05-19 02:13:00,
2013-05-18 22:18:00,75.9,71.8,30.09,South,169,0.0,5.0,87,0.01,,,0.01,meteohub,2013-05-19 02:18:00,
2013-05-18 22:23:00,76.1,71.6,30.09,SSE,159,0.0,5.0,86,0.01,,,0.01,meteohub,2013-05-19 02:23:00,
2013-05-18 22:28:00,76.1,72.0,30.09,ESE,118,1.0,5.0,87,0.01,,,0.01,meteohub,2013-05-19 02:28:00,
2013-05-18 22:33:00,76.1,71.2,30.09,South,179,0.0,5.0,85,0.01,,,0.01,meteohub,2013-05-19 02:33:00,
2013-05-18 22:38:00,76.1,70.9,30.09,ENE,78,0.0,5.0,84,0.01,,,0.01,meteohub,2013-05-19 02:38:00,
2013-05-18 22:43:00,75.9,70.3,30.09,ENE,76,0.0,5.0,83,0.01,,,0.01,meteohub,2013-05-19 02:43:00,
2013-05-18 22:48:00,75.9,70.3,30.09,SE,124,0.0,5.0,83,0.01,,,0.01,meteohub,2013-05-19 02:48:00,
2013-05-18 22:53:00,75.9,70.7,30.09,SE,134,0.0,5.0,84,0.01,,,0.01,meteohub,2013-05-19 02:53:00,
2013-05-18 22:58:00,75.9,70.3,30.09,SSE,153,0.0,5.0,83,0.00,,,0.01,meteohub,2013-05-19 02:58:00,
2013-05-18 23:03:00,75.9,70.0,30.09,South,169,0.0,5.0,82,0.00,,,0.01,meteohub,2013-05-19 03:03:00,
2013-05-18 23:08:00,75.9,70.0,30.09,NNE,28,0.0,5.0,82,0.00,,,0.01,meteohub,2013-05-19 03:08:00,
2013-05-18 23:13:00,75.9,69.6,30.09,SE,145,0.0,5.0,81,0.00,,,0.01,meteohub,2013-05-19 03:13:00,
2013-05-18 23:18:00,75.9,69.6,30.09,SE,130,0.0,5.0,81,0.00,,,0.01,meteohub,2013-05-19 03:18:00,
2013-05-18 23:23:00,75.9,70.0,30.09,East,101,0.0,5.0,82,0.00,,,0.01,meteohub,2013-05-19 03:23:00,
2013-05-18 23:28:00,75.9,70.0,30.09,ESE,112,0.0,3.0,82,0.00,,,0.01,meteohub,2013-05-19 03:28:00,
2013-05-18 23:34:00,75.9,69.6,30.09,East,100,0.0,3.0,81,0.00,,,0.01,meteohub,2013-05-19 03:34:00,
2013-05-18 23:39:00,76.1,69.8,30.09,SSE,150,0.0,2.0,81,0.00,,,0.01,meteohub,2013-05-19 03:39:00,
2013-05-18 23:44:00,76.1,69.4,30.09,South,185,1.0,3.0,80,0.00,,,0.01,meteohub,2013-05-19 03:44:00,
2013-05-18 23:49:00,76.3,70.0,30.09,SE,136,0.0,4.0,81,0.00,,,0.01,meteohub,2013-05-19 03:49:00,
2013-05-18 23:54:00,76.3,69.6,30.09,East,99,0.0,4.0,80,0.00,,,0.01,meteohub,2013-05-19 03:54:00,
2013-05-18 23:59:00,76.3,69.6,30.09,ESE,114,0.0,4.0,80,0.00,,,0.01,meteohub,2013-05-19 03:59:00,